Regional Weather Roundup
Issued by NWS

Home | Current Version | Previous Version | Text Only | Print | Product List | Glossary On
Versions: 1 2 3 4 5 6 7 8 9 10 11 12 13 14 15 16 17 18 19 20 21 22 23 24 25 26 27 28 29 30 31 32 33 34 35 36 37 38 39 40 41 42 43 44 45 46 47 48 49 50
000
ASUS45 KREV 221510
RWRNV
NEVADA REGIONAL WEATHER ROUNDUP
NATIONAL WEATHER SERVICE RENO NV
800 AM PDT SAT JUL 22 2017

NOTE: "FAIR" INDICATES FEW OR NO CLOUDS BELOW 12,000 FEET WITH NO
SIGNIFICANT WEATHER AND/OR OBSTRUCTIONS TO VISIBILITY.

NVZ001-003-004-221600-
WESTERN NEVADA

CITY           SKY/WX    TMP DP  RH WIND       PRES   REMARKS
RENO           SUNNY     68  40  35 CALM      30.17R
CARSON CITY    FAIR      63  39  42 CALM      30.19S
MINDEN         FAIR      63  37  39 MISG      30.19S
FALLON         SUNNY     73  34  23 CALM      30.11R
LOVELOCK       SUNNY     74  33  22 CALM      30.11R
HAWTHORNE      SUNNY     75  34  22 CALM      30.13R
$$

NVZ002-CAZ072-073-221600-
NORTHERN AND CENTRAL SIERRA

CITY           SKY/WX    TMP DP  RH WIND       PRES   REMARKS
S. LAKE TAHOE  SUNNY     55  42  61 CALM      30.26R
TRUCKEE        SUNNY     50  36  57 CALM      30.27R
SQUAW VLY 8000   N/A     66  34  30 E5          N/A
SUSANVILLE     SUNNY     64  41  42 CALM      30.17R
MAMMOTH LAKES  FAIR      62  33  34 CALM      30.34R
BRIDGEPORT     FAIR      53  35  50 CALM      30.30S
$$

NVZ030-031-036-221600-
NORTHERN NEVADA

CITY           SKY/WX    TMP DP  RH WIND       PRES   REMARKS
ELKO           SUNNY     67  36  31 S5        30.21S
WINNEMUCCA     SUNNY     75  33  21 NE16G24   30.15R
WENDOVER       SUNNY     82  34  17 CALM      30.14R
$$

NVZ035-037-221600-
CENTRAL NEVADA

CITY           SKY/WX    TMP DP  RH WIND       PRES   REMARKS
ELY            SUNNY     69  37  30 CALM      30.29R
EUREKA           N/A     71  32  23 N5        30.25R
$$

NVZ013-014-221600-
SOUTH CENTRAL NEVADA

CITY           SKY/WX    TMP DP  RH WIND       PRES   REMARKS
TONOPAH        SUNNY     76  34  21 SE5       30.21R
$$

NVZ017-020-022-221600-
SOUTHERN NEVADA

CITY           SKY/WX    TMP DP  RH WIND       PRES   REMARKS
LAS VEGAS      PTSUNNY   92  48  22 CALM      29.93R
N. LAS VEGAS   MOSUNNY   91  47  21 NE5       29.93R
NELLIS AFB     MOSUNNY   88  54  31 NE3       29.91R
HENDERSON      NOT AVBL
MERCURY        SUNNY     83  31  15 CALM      30.02R
$$



USA.gov is the U.S. government's official web portal to all federal, state and local government web resources and services.